FW5423 Weather Reports


Display with metric or nautical units.
time (UTC)temp
F
wind
direction
speed
MPH
gust
MPH
rain 1hr
in
rain 24hr
in
rain mn
in
humidity
%
barometer
mb
20260502130558 59 359 14.0 24.0 0.07 0.24 0.24 96 1016.9
20260502123554 59 359 8.0 21.0 0.06 0.22 0.22 95 1016.7
20260502123112 59 359 10.0 20.0 0.06 0.20 0.20 95 1016.7
20260502122550 59 242 12.0 21.0 0.06 0.20 0.20 95 1016.5
20260502122052 59 216 12.0 21.0 0.08 0.20 0.20 95 1016.6
20260502121555 59 223 12.0 23.0 0.13 0.20 0.20 96 1016.5
20260502121048 58 359 12.0 23.0 0.13 0.20 0.20 96 1016.6
20260502120547 59 359 10.0 23.0 0.13 0.18 0.18 97 1016.5
20260502115544 58 216 12.0 25.0 0.17 0.17 0.17 98 1016.0
20260502115043 58 359 11.0 24.0 0.17 0.17 0.17 98 1016.0
20260502114542 58 190 11.0 24.0 0.17 0.17 0.17 98 1015.7
20260502114045 58 186 6.0 18.0 0.17 0.17 0.17 98 1015.6
20260502113538 59 174 4.0 10.0 0.17 0.17 0.17 98 1015.7
20260502113047 59 359 4.0 10.0 0.16 0.16 0.16 98 1015.8
20260502112538 60 359 1.0 7.0 0.14 0.14 0.14 98 1015.9
20260502112036 60 359 2.0 10.0 0.13 0.13 0.13 98 1015.8
20260502111542 61 227 3.0 12.0 0.11 0.11 0.11 98 1015.6
20260502111034 61 79 5.0 12.0 0.06 0.06 0.06 98 1015.6
20260502110533 61 174 3.0 8.0 0.06 0.06 0.06 98 1015.7
20260502110033 62 103 4.0 8.0 0.05 0.05 0.05 98 1015.5
20260502105532 63 125 0.0 3.0 0.01 0.01 0.01 98 1015.9
20260502105031 63 128 0.0 3.0 0.01 0.01 0.01 98 1015.9
20260502104533 63 129 0.0 6.0 0.00 0.00 0.00 98 1015.8
20260502104029 63 359 1.0 8.0 0.00 0.00 0.00 98 1015.7
20260502103529 63 188 4.0 8.0 0.00 0.00 0.00 98 1015.6
20260502103028 63 181 3.0 7.0 0.00 0.00 0.00 98 1015.5
20260502102526 63 174 2.0 4.0 0.00 0.00 0.00 98 1015.5
20260502102026 63 193 0.0 6.0 0.00 0.00 0.00 98 1015.5
20260502101525 63 193 2.0 7.0 0.00 0.00 0.00 97 1015.3
20260502101023 64 184 2.0 11.0 0.00 0.00 0.00 98 1015.3
20260502100523 64 256 1.0 13.0 0.00 0.00 0.00 98 1015.1
20260502091516 64 359 15.0 24.0 0.00 0.00 0.00 97 1012.7
20260502091015 64 359 16.0 26.0 0.00 0.00 0.00 97 1012.6
20260502090515 64 249 18.0 26.0 0.00 0.00 0.00 97 1012.4
20260502071510 64 359 20.0 30.0 0.00 0.00 0.00 97 1012.3
20260502071010 64 359 18.0 28.0 0.00 0.00 0.00 97 1012.3
20260502070517 63 359 18.0 28.0 0.00 0.00 0.00 97 1012.3
20260502070016 64 243 17.0 26.0 0.00 0.00 0.00 97 1012.2
20260502065511 63 359 16.0 26.0 0.00 0.00 0.00 97 1012.2
20260502065013 63 258 18.0 26.0 0.00 0.00 0.00 97 1012.3
20260502064511 64 359 17.0 31.0 0.00 0.00 0.00 97 1012.3
20260502064011 64 359 16.0 31.0 0.00 0.00 0.00 97 1012.3
20260502063510 64 359 20.0 28.0 0.00 0.00 0.00 97 1012.2
20260502063010 64 359 17.0 30.0 0.00 0.00 0.00 97 1012.2
20260502062510 64 359 19.0 30.0 0.00 0.00 0.00 97 1012.1
20260502062012 64 359 17.0 27.0 0.00 0.00 0.00 96 1012.2
20260502061509 64 359 17.0 27.0 0.00 0.00 0.00 96 1012.3
20260502061008 64 256 18.0 26.0 0.00 0.00 0.00 96 1012.4
20260502060513 65 359 20.0 28.0 0.00 0.00 0.00 96 1012.4
20260502060007 64 359 18.0 28.0 0.00 0.00 0.00 96 1012.6
20260502055507 64 359 15.0 25.0 0.00 0.00 0.00 96 1012.7
20260502055008 64 270 16.0 25.0 0.00 0.00 0.00 95 1012.8
20260502054507 65 359 18.0 25.0 0.00 0.00 0.00 95 1012.8
20260502054008 65 359 17.0 24.0 0.00 0.00 0.00 95 1012.7
20260502053507 65 262 17.0 25.0 0.00 0.00 0.00 95 1012.6
20260502053007 65 359 20.0 28.0 0.00 0.01 0.00 95 1012.5
20260502052507 65 359 16.0 28.0 0.00 0.01 0.00 94 1012.6
20260502052008 65 359 18.0 26.0 0.00 0.01 0.00 94 1012.6
20260502051506 65 359 18.0 31.0 0.00 0.01 0.00 94 1012.6
20260502051006 65 359 17.0 31.0 0.00 0.01 0.00 94 1012.8
20260502050506 65 359 17.0 27.0 0.00 0.01 0.00 94 1012.6
20260502050006 65 359 17.0 30.0 0.00 0.01 0.00 94 1012.8
20260502045506 65 359 19.0 28.0 0.00 0.01 0.00 94 1012.8
20260502045005 65 359 19.0 28.0 0.00 0.01 0.00 94 1012.9
20260502044505 66 359 17.0 28.0 0.00 0.01 0.00 94 1012.8
20260502044004 66 359 18.0 28.0 0.00 0.01 0.00 94 1012.7
20260502043504 66 359 19.0 31.0 0.00 0.01 0.00 93 1012.7
20260502043004 66 359 19.0 31.0 0.00 0.01 0.00 93 1012.9
20260502042504 66 359 20.0 27.0 0.00 0.01 0.00 94 1012.9
20260502042005 66 359 20.0 28.0 0.00 0.01 0.00 94 1012.9
20260502041504 66 359 20.0 28.0 0.00 0.01 0.00 94 1013.0
20260502041002 65 359 19.0 27.0 0.00 0.01 0.00 93 1013.0
20260502040502 66 359 20.0 29.0 0.00 0.01 0.00 94 1013.2
20260502040002 65 359 20.0 27.0 0.00 0.01 0.00 94 1013.2
20260502035503 65 359 20.0 30.0 0.00 0.01 0.00 94 1013.4
20260502035003 65 359 20.0 30.0 0.00 0.01 0.00 94 1013.3
20260502034503 65 359 20.0 30.0 0.00 0.01 0.00 94 1013.3
20260502034004 65 359 18.0 30.0 0.00 0.01 0.00 94 1013.3
20260502033502 65 359 22.0 29.0 0.00 0.01 0.00 94 1013.2
20260502033003 65 359 21.0 28.0 0.00 0.01 0.00 94 1013.3
20260502032503 65 359 20.0 28.0 0.00 0.01 0.00 93 1013.2
20260502032003 66 359 20.0 28.0 0.00 0.01 0.00 93 1013.2
20260502031502 65 359 21.0 28.0 0.00 0.01 0.00 94 1013.4
20260502031002 65 359 20.0 29.0 0.00 0.01 0.00 94 1013.6
20260502030502 65 359 19.0 29.0 0.00 0.01 0.00 94 1013.6
20260502030002 65 359 20.0 28.0 0.00 0.01 0.00 95 1013.6
20260502025501 64 359 19.0 26.0 0.00 0.01 0.00 96 1013.7
20260502025001 64 359 19.0 26.0 0.00 0.01 0.00 96 1013.7
20260502024502 64 359 18.0 28.0 0.00 0.01 0.00 96 1013.9
20260502024001 64 359 18.0 28.0 0.00 0.01 0.00 96 1014.0
20260502023600 64 359 17.0 23.0 0.00 0.01 0.00 96 1014.1
20260502023200 64 359 17.0 24.0 0.00 0.01 0.00 96 1014.1
20260502022600 64 359 17.0 27.0 0.00 0.01 0.00 96 1014.2
20260502022059 64 359 17.0 24.0 0.00 0.01 0.00 96 1014.3
20260502021601 64 359 16.0 23.0 0.00 0.01 0.00 96 1014.2
20260502021101 64 359 17.0 23.0 0.00 0.01 0.00 96 1014.2
20260502020559 64 359 16.0 21.0 0.00 0.01 0.00 96 1014.2
20260502020059 64 359 14.0 21.0 0.00 0.01 0.00 95 1014.1
20260502015559 64 359 14.0 20.0 0.00 0.01 0.00 95 1014.1
20260502014554 64 359 14.0 19.0 0.00 0.01 0.00 95 1014.2
20260502014054 64 359 13.0 19.0 0.00 0.01 0.00 94 1014.3
20260502013554 65 359 13.0 18.0 0.00 0.01 0.00 94 1014.3
20260502013054 65 359 14.0 18.0 0.00 0.01 0.00 93 1014.2
20260502012554 64 359 12.0 18.0 0.00 0.01 0.00 94 1014.2
20260502012054 64 359 12.0 18.0 0.00 0.01 0.00 93 1014.2
20260502011554 65 359 12.0 18.0 0.00 0.01 0.00 93 1014.2
20260502011054 65 359 13.0 20.0 0.00 0.01 0.00 92 1014.2
20260502010553 65 359 14.0 20.0 0.00 0.01 0.00 93 1014.3
20260502010054 65 359 12.0 18.0 0.00 0.01 0.00 92 1014.4
20260502005553 65 359 13.0 18.0 0.00 0.01 0.00 92 1014.3
20260502004554 65 359 14.0 19.0 0.00 0.01 0.00 93 1014.2
20260502004053 64 359 13.0 19.0 0.00 0.01 0.00 92 1014.2
20260502003553 65 359 14.0 20.0 0.00 0.01 0.00 92 1014.1
20260502003054 65 359 13.0 21.0 0.00 0.01 0.00 91 1014.2
20260502002555 65 359 14.0 21.0 0.00 0.01 0.00 91 1014.3
20260502002053 65 359 14.0 21.0 0.00 0.01 0.00 92 1014.3
20260502001556 64 359 14.0 19.0 0.00 0.01 0.00 93 1014.4
20260502001053 64 359 14.0 19.0 0.00 0.01 0.00 93 1014.4
20260502000552 64 359 13.0 19.0 0.00 0.01 0.00 94 1014.5
20260502000059 64 359 13.0 19.0 0.00 0.01 0.00 94 1014.4
20260501235554 64 359 14.0 19.0 0.00 0.01 0.00 94 1014.4
20260501234556 64 359 13.0 18.0 0.00 0.01 0.00 94 1014.6
20260501234052 63 359 12.0 16.0 0.00 0.01 0.00 96 1014.7
20260501233552 63 359 13.0 19.0 0.00 0.01 0.00 97 1014.7
20260501233051 63 359 12.0 19.0 0.00 0.01 0.00 97 1014.6
20260501232552 63 359 13.0 18.0 0.00 0.01 0.00 98 1014.6
20260501232055 62 359 12.0 17.0 0.00 0.01 0.00 98 1014.5
20260501231555 62 359 11.0 16.0 0.00 0.01 0.00 98 1014.5
20260501231051 62 359 11.0 16.0 0.00 0.01 0.00 98 1014.5
20260501230551 62 359 11.0 16.0 0.00 0.01 0.00 98 1014.5
20260501230055 62 359 11.0 15.0 0.00 0.01 0.00 98 1014.5
20260501225551 62 359 10.0 15.0 0.00 0.01 0.00 98 1014.4
20260501224551 62 359 10.0 15.0 0.00 0.01 0.00 97 1014.5
20260501224055 63 359 10.0 15.0 0.00 0.01 0.00 97 1014.5
20260501223551 63 359 9.0 13.0 0.00 0.01 0.00 97 1014.5
20260501223051 63 359 9.0 13.0 0.00 0.01 0.00 97 1014.5
20260501222555 63 359 9.0 13.0 0.00 0.01 0.00 96 1014.6
20260501222051 63 359 9.0 12.0 0.00 0.01 0.00 96 1014.6
20260501221557 63 359 8.0 12.0 0.00 0.01 0.00 95 1014.5
20260501221050 63 359 8.0 12.0 0.00 0.01 0.00 93 1014.5
20260501220551 64 359 8.0 11.0 0.00 0.01 0.00 91 1014.5
20260501220054 65 359 8.0 11.0 0.00 0.01 0.00 88 1014.4
20260501215551 65 359 7.0 10.0 0.00 0.01 0.00 87 1014.4
20260501214553 65 359 7.0 10.0 0.00 0.01 0.00 86 1014.4
20260501214051 65 359 7.0 10.0 0.00 0.01 0.00 85 1014.3
20260501213553 65 359 7.0 10.0 0.00 0.01 0.00 85 1014.3
20260501213055 65 359 7.0 10.0 0.00 0.01 0.00 85 1014.4
20260501212549 65 359 7.0 10.0 0.00 0.01 0.00 86 1014.4
20260501212053 65 359 7.0 10.0 0.00 0.01 0.00 86 1014.4
20260501211549 65 359 7.0 10.0 0.00 0.01 0.00 87 1014.3
20260501211049 65 359 7.0 10.0 0.00 0.01 0.00 87 1014.4
20260501210549 65 359 7.0 10.0 0.00 0.01 0.00 88 1014.4
20260501210049 65 359 7.0 9.0 0.00 0.01 0.00 89 1014.5
20260501205549 65 359 6.0 8.0 0.00 0.01 0.00 90 1014.5
20260501204554 65 359 5.0 6.0 0.00 0.01 0.00 92 1014.4
20260501204053 66 359 4.0 6.0 0.00 0.01 0.00 90 1014.4
20260501203553 66 359 3.0 5.0 0.00 0.01 0.00 89 1014.4
20260501203058 67 359 3.0 5.0 0.00 0.01 0.00 88 1014.4
20260501202553 67 359 3.0 6.0 0.00 0.01 0.00 86 1014.3
20260501202056 67 359 4.0 6.0 0.00 0.01 0.00 86 1014.3
20260501201558 68 359 4.0 7.0 0.00 0.01 0.00 84 1014.3
20260501201053 68 359 4.0 7.0 0.00 0.01 0.00 82 1014.3
20260501200555 68 4 3.0 6.0 0.00 0.01 0.00 83 1014.3
20260501200053 69 4 2.0 6.0 0.00 0.01 0.00 81 1014.3
20260501195552 69 359 4.0 6.0 0.00 0.01 0.00 80 1014.3
20260501194602 70 359 2.0 6.0 0.00 0.01 0.00 79 1014.4
20260501194047 70 359 4.0 6.0 0.00 0.01 0.00 75 1014.5
20260501193546 70 359 4.0 6.0 0.00 0.01 0.00 73 1014.5
20260501193046 70 359 1.0 6.0 0.00 0.01 0.00 73 1014.5
20260501192547 70 359 2.0 6.0 0.00 0.01 0.00 74 1014.6
20260501192046 70 359 0.0 7.0 0.00 0.01 0.00 75 1014.6
20260501191554 70 359 2.0 7.0 0.00 0.01 0.00 74 1014.6
20260501191046 70 359 4.0 6.0 0.00 0.01 0.00 73 1014.6
20260501190545 70 359 4.0 7.0 0.00 0.01 0.00 72 1014.5
20260501190051 70 359 4.0 7.0 0.00 0.01 0.00 72 1014.5
20260501185545 70 359 5.0 8.0 0.00 0.01 0.00 73 1014.5
20260501184550 70 359 4.0 9.0 0.00 0.01 0.00 72 1014.5
20260501184044 70 359 5.0 9.0 0.00 0.01 0.00 72 1014.6
20260501183544 70 359 4.0 9.0 0.00 0.01 0.00 72 1014.7
20260501183044 70 359 3.0 8.0 0.00 0.01 0.00 75 1014.7
20260501182544 70 359 5.0 8.0 0.00 0.01 0.00 73 1014.7
20260501182043 70 359 5.0 8.0 0.00 0.01 0.00 73 1014.8
20260501181612 70 359 4.0 11.0 0.00 0.01 0.00 76 1014.7
20260501181042 69 270 5.0 11.0 0.00 0.01 0.00 75 1014.7
20260501180543 69 359 6.0 12.0 0.00 0.01 0.00 74 1014.8
20260501180044 69 359 7.0 12.0 0.00 0.01 0.00 74 1014.7
20260501175541 69 14 6.0 11.0 0.00 0.01 0.00 73 1014.7
20260501174540 69 359 7.0 12.0 0.00 0.01 0.00 74 1014.9
20260501174039 70 359 6.0 12.0 0.00 0.01 0.00 75 1015.1
20260501173540 70 359 6.0 10.0 0.00 0.01 0.00 76 1015.1
20260501173059 69 359 6.0 13.0 0.00 0.01 0.00 77 1015.0
20260501172538 69 359 9.0 13.0 0.00 0.01 0.00 78 1015.1
20260501172036 69 359 6.0 12.0 0.00 0.01 0.00 76 1015.2
20260501171537 69 359 9.0 12.0 0.00 0.01 0.00 79 1015.3
20260501171036 68 359 7.0 12.0 0.00 0.01 0.00 79 1015.2
20260501170534 69 359 8.0 12.0 0.00 0.01 0.00 76 1015.4
20260501170033 69 359 6.0 11.0 0.00 0.01 0.00 76 1015.4
20260501165533 69 359 5.0 9.0 0.00 0.01 0.00 79 1015.6
20260501164534 69 359 5.0 11.0 0.00 0.01 0.00 80 1015.6
20260501164028 68 359 7.0 11.0 0.00 0.01 0.00 80 1015.7
20260501163531 68 359 7.0 11.0 0.00 0.01 0.00 80 1016.0
20260501163025 68 359 7.0 12.0 0.00 0.01 0.00 82 1016.0
20260501162524 67 359 5.0 11.0 0.00 0.01 0.00 84 1016.1
20260501162025 67 258 8.0 12.0 0.00 0.01 0.00 84 1016.3
20260501161523 67 359 6.0 13.0 0.00 0.01 0.00 82 1016.2
20260501161022 67 359 10.0 15.0 0.00 0.01 0.00 84 1016.2
20260501160521 67 359 8.0 15.0 0.00 0.01 0.00 84 1016.3
20260501160021 67 359 7.0 13.0 0.00 0.01 0.00 84 1016.3
20260501155523 66 359 7.0 15.0 0.00 0.01 0.00 86 1016.4
20260501154523 65 359 7.0 13.0 0.00 0.01 0.00 84 1016.6
20260501154020 66 359 7.0 13.0 0.00 0.01 0.00 82 1016.8
20260501153520 66 359 9.0 14.0 0.00 0.01 0.00 82 1016.8
20260501153041 66 359 9.0 12.0 0.00 0.01 0.00 83 1016.9
20260501152517 66 359 8.0 12.0 0.00 0.01 0.00 85 1017.1
20260501152016 66 27 6.0 14.0 0.00 0.01 0.00 86 1017.1
20260501151516 66 359 7.0 14.0 0.00 0.01 0.00 84 1017.2
20260501151014 66 4 7.0 14.0 0.00 0.01 0.00 84 1017.3
20260501150514 65 359 9.0 14.0 0.00 0.01 0.00 84 1017.3
20260501150014 65 359 9.0 13.0 0.00 0.01 0.00 83 1017.5
20260501145515 66 359 6.0 11.0 0.00 0.01 0.00 88 1017.5
20260501144515 64 350 7.0 13.0 0.00 0.01 0.00 88 1017.8
20260501144008 64 359 8.0 13.0 0.00 0.01 0.00 88 1017.9
20260501143514 64 359 6.0 12.0 0.00 0.01 0.00 89 1017.9
20260501143007 64 359 6.0 12.0 0.00 0.01 0.00 91 1017.8
20260501142506 63 20 7.0 12.0 0.00 0.01 0.00 92 1018.0
20260501142005 63 359 7.0 13.0 0.00 0.01 0.00 91 1018.1
20260501141504 63 37 7.0 13.0 0.00 0.01 0.00 91 1018.2